Gallup, NM

9:27 PM MDT on March 27, 2017 (GMT -0600)
Gallup Municipal

Weather History for KGUP - September, 2012

Change the Weather History Date:

Thursday, September 20, 2012

  Actual Average Record
Temperature  
Mean Temperature 60 °F -  
Max Temperature 82 °F 75 °F 88 °F (2014)
Min Temperature 39 °F 39 °F 30 °F (1987)
Degree Days  
Heating Degree Days 4    
Growing Degree Days 10 (Base 50)    
Moisture  
Dew Point 19 °F    
Average Humidity 25    
Maximum Humidity 49    
Minimum Humidity 8    
Precipitation  
Precipitation 0.00 in - - ()
Sea Level Pressure  
Sea Level Pressure 29.95 in    
Wind  
Wind Speed 2 mph (NNW)    
Max Wind Speed 12 mph    
Max Gust Speed 20 mph    
Visibility 10 miles    
Events      
Averages and records for this station are not official NWS values.
T = Trace of Precipitation, MM = Missing Value Source: NWS Daily Summary

Daily Weather History Graph

Daily Weather History Graph

Search for Another Location

Airport or City:

Trip Planner

Search our weather history database for the weather conditions in past years. The results will help you decide how hot, cold, wet, or windy it might be!

Date:

Astronomy

Sep. 20, 2012 Rise Set
Actual Time 7:02 AM MDT 7:14 PM MDT
Civil Twilight 6:36 AM MDT 7:39 PM MDT
Nautical Twilight 6:06 AM MDT 8:09 PM MDT
Astronomical Twilight 5:36 AM MDT 8:39 PM MDT
Moon 12:11 PM MDT (9/20) 10:31 PM MDT (9/20)
Length of Visible Light 13h 02m
Length of Day
12h 12m
Waxing Crescent, 27% of the Moon is Illuminated
Sep 20
Waxing Crescent
Sep 22
First Quarter
Sep 29
Full
Oct 8
Last Quarter
Oct 15
New

Hourly Weather History & Observations

Time (MDT) Temp. Windchill Dew Point Humidity Pressure Visibility Wind Dir Wind Speed Gust Speed Precip Events Conditions
12:53 AM 48.9 °F - 21.9 °F 35% 29.90 in 10.0 mi Calm Calm - N/A   Clear
1:53 AM 43.0 °F - 19.9 °F 40% 29.94 in 10.0 mi Calm Calm - N/A   Clear
2:53 AM 45.0 °F - 21.9 °F 40% 29.92 in 10.0 mi Calm Calm - N/A   Clear
3:53 AM 42.1 °F - 21.9 °F 45% 29.94 in 10.0 mi Calm Calm - N/A   Clear
4:53 AM 39.9 °F - 19.9 °F 45% 29.95 in 10.0 mi Calm Calm - N/A   Clear
5:53 AM 41.0 °F 39.0 °F 21.0 °F 45% 29.95 in 10.0 mi ENE 3.5 mph - N/A   Clear
6:53 AM 39.2 °F - 21.2 °F 49% 30.32 in 10.0 mi Calm Calm - N/A   Clear
7:53 AM 44.1 °F - 21.9 °F 42% 30.02 in 10.0 mi Calm Calm - N/A   Clear
8:53 AM 53.1 °F - 23.0 °F 31% 30.02 in 10.0 mi Calm Calm - N/A   Clear
9:53 AM 62.6 °F - 24.8 °F 24% 30.34 in 10.0 mi Calm Calm - N/A   Clear
10:53 AM 71.1 °F - 21.0 °F 15% 29.96 in 10.0 mi Calm Calm - N/A   Clear
11:53 AM 77.0 °F - 19.0 °F 11% 29.93 in 10.0 mi Calm Calm - N/A   Clear
12:53 PM 78.1 °F - 16.0 °F 10% 29.89 in 10.0 mi Variable 6.9 mph - N/A   Clear
1:53 PM 80.1 °F - 16.0 °F 9% 29.89 in 10.0 mi NNW 10.4 mph - N/A   Clear
2:53 PM 80.1 °F - 16.0 °F 9% 29.85 in 10.0 mi WSW 5.8 mph - N/A   Clear
3:53 PM 82.0 °F - 16.0 °F 8% 29.85 in 10.0 mi West 10.4 mph 17.3 mph N/A   Clear
4:53 PM 81.0 °F - 15.1 °F 8% 29.85 in 10.0 mi WNW 11.5 mph 19.6 mph N/A   Clear
5:53 PM 80.1 °F - 14.0 °F 8% 29.84 in 10.0 mi WNW 6.9 mph - N/A   Clear
6:53 PM 77.0 °F - 17.1 °F 10% 29.88 in 10.0 mi North 6.9 mph - N/A   Clear
7:53 PM 71.1 °F - 16.0 °F 12% 29.90 in 10.0 mi North 9.2 mph - N/A   Clear
8:53 PM 64.0 °F - 16.0 °F 16% 29.91 in 10.0 mi East 6.9 mph - N/A   Clear
9:53 PM 59.0 °F - 18.0 °F 20% 29.90 in 10.0 mi Calm Calm - N/A   Clear
10:53 PM 52.0 °F - 19.0 °F 27% 29.89 in 10.0 mi Calm Calm - N/A   Clear
11:53 PM 51.1 °F - 19.9 °F 29% 29.87 in 10.0 mi Calm Calm - N/A   Clear